Location: Alt?nova Orta
(36.9295°N, 30.7847°E)
Time: 09:58:11
(UTC+00:00)

USA 229 DEB - Pass Details

Date: 17 February 2020
Orbit: 988 x 1224 km, 63.4° (Epoch: 26 March)

Event Time Altitude Azimuth Distance (km) Brightness Sun altitude
Exits shadow 01:48:20 50° 13° (NNE) 1,464 4.4 -35.6°
Maximum altitude 01:49:48 58° 54° (NE) 1,361 4.3 -35.3°
Drops below altitude 10° 01:57:17 10° 133° (SE) 3,158 6.5 -33.9°
Sets 02:00:08 0° 137° (SE) 4,131 7.2 -33.3°
